Dutch Harbor, AK

3:43 AM AKST on November 21, 2017 (GMT -0900)
Unalaska

Weather History for PADU - October, 2011

Change the Weather History Date:

Wednesday, October 5, 2011

  Actual Average Record
Temperature  
Mean Temperature 47 °F -  
Max Temperature 50 °F 50 °F 58 °F (1991)
Min Temperature 46 °F 39 °F 27 °F (1992)
Degree Days  
Heating Degree Days 18    
Moisture  
Dew Point 38 °F    
Average Humidity 70    
Maximum Humidity 81    
Minimum Humidity 59    
Precipitation  
Precipitation 0.10 in - - ()
Sea Level Pressure  
Sea Level Pressure 29.23 in    
Wind  
Wind Speed 13 mph (SW)    
Max Wind Speed 23 mph    
Max Gust Speed 32 mph    
Visibility 10 miles    
Events Rain    
Averages and records for this station are not official NWS values.
T = Trace of Precipitation, MM = Missing Value Source: NWS Daily Summary

Daily Weather History Graph

Daily Weather History Graph

Search for Another Location

Airport or City:

Trip Planner

Search our weather history database for the weather conditions in past years. The results will help you decide how hot, cold, wet, or windy it might be!

Date:

Astronomy

Oct. 05, 2011 Rise Set
Actual Time 9:15 AM AKDT 8:32 PM AKDT
Civil Twilight 8:40 AM AKDT 9:07 PM AKDT
Nautical Twilight 7:59 AM AKDT 9:48 PM AKDT
Astronomical Twilight 7:17 AM AKDT 10:30 PM AKDT
Moon 6:05 PM AKDT (10/5) 2:23 AM AKDT (10/5)
Length of Visible Light 12h 27m
Length of Day
11h 17m
Waxing Gibbous, 67% of the Moon is Illuminated
Oct 5
Waxing Gibbous
Oct 11
Full
Oct 19
Last Quarter
Oct 26
New
Nov 2
First Quarter

Hourly Weather History & Observations

Time (AKDT) Temp. Windchill Dew Point Humidity Pressure Visibility Wind Dir Wind Speed Gust Speed Precip Events Conditions
12:58 AM 48.0 °F - 36.0 °F 63% 29.35 in 10.0 mi SW 15.0 mph 25.3 mph N/A   Scattered Clouds
1:58 AM 48.9 °F - 35.1 °F 59% 29.36 in 10.0 mi SW 23.0 mph 29.9 mph N/A   Clear
2:58 AM 48.0 °F - 37.0 °F 66% 29.37 in 10.0 mi SSW 20.7 mph 27.6 mph N/A   Clear
3:58 AM 46.9 °F - 37.0 °F 68% 29.36 in 10.0 mi SW 18.4 mph - N/A   Partly Cloudy
4:58 AM 46.0 °F - 37.0 °F 71% 29.35 in 10.0 mi Calm Calm - N/A   Mostly Cloudy
5:58 AM 48.9 °F - 37.0 °F 64% 29.31 in 10.0 mi NE 6.9 mph - N/A   Overcast
7:58 AM 46.9 °F - 39.0 °F 74% 29.28 in 10.0 mi ENE 9.2 mph - 0.01 in   Overcast
8:58 AM 48.0 °F - 37.9 °F 68% 29.25 in 10.0 mi South 5.8 mph - N/A   Mostly Cloudy
9:58 AM 46.9 °F - 39.9 °F 77% 29.21 in 9.0 mi SSE 6.9 mph - 0.02 in   Overcast
10:58 AM 48.0 °F - 41.0 °F 77% 29.17 in 10.0 mi SE 3.5 mph - 0.01 in Rain Light Rain
11:58 AM 48.0 °F - 41.0 °F 77% 29.13 in 10.0 mi Calm Calm - 0.02 in   Overcast
12:58 PM 48.0 °F - 39.9 °F 74% 29.13 in 10.0 mi WSW 5.8 mph - 0.02 in Rain Light Rain
1:58 PM 48.0 °F - 39.9 °F 74% 29.11 in 10.0 mi WSW 6.9 mph - 0.00 in Rain Light Rain
2:58 PM 48.0 °F - 41.0 °F 77% 29.12 in 10.0 mi SW 8.1 mph - 0.01 in Rain Light Rain
3:03 PM 46.4 °F 41.5 °F 41.0 °F 81% 29.11 in 9.0 mi WSW 10.4 mph - 0.00 in Rain Light Rain
3:22 PM 46.4 °F 40.7 °F 37.4 °F 71% 29.11 in 10.0 mi SW 12.7 mph 27.6 mph 0.01 in Rain Light Rain
3:58 PM 46.9 °F - 37.9 °F 71% 29.13 in 10.0 mi SW 16.1 mph 25.3 mph 0.01 in Rain Light Rain
4:24 PM 48.2 °F - 39.2 °F 71% 29.12 in 10.0 mi SSW 16.1 mph 27.6 mph 0.00 in   Overcast
4:36 PM 48.2 °F - 39.2 °F 71% 29.12 in 10.0 mi SW 16.1 mph 31.1 mph 0.00 in   Overcast
4:50 PM 48.2 °F - 37.4 °F 66% 29.13 in 10.0 mi SSW 18.4 mph 32.2 mph 0.00 in   Overcast
4:58 PM 48.0 °F - 39.0 °F 71% 29.15 in 10.0 mi SW 18.4 mph 26.5 mph 0.00 in Rain Light Rain
5:58 PM 48.0 °F - 37.0 °F 66% 29.19 in 10.0 mi SW 10.4 mph - 0.00 in   Overcast
6:19 PM 48.2 °F - 35.6 °F 62% 29.18 in 10.0 mi West 5.8 mph - N/A   Overcast
6:58 PM 48.0 °F - 37.9 °F 68% 29.22 in 10.0 mi WNW 12.7 mph - N/A   Overcast
7:58 PM 48.0 °F - 36.0 °F 63% 29.27 in 10.0 mi WNW 15.0 mph - N/A   Mostly Cloudy
8:58 PM 48.0 °F - 37.9 °F 68% 29.31 in 10.0 mi West 16.1 mph - N/A   Overcast
9:58 PM 48.0 °F - 39.0 °F 71% 29.36 in 10.0 mi WNW 17.3 mph - N/A   Overcast
10:58 PM 48.0 °F - 39.9 °F 74% 29.40 in 10.0 mi WNW 16.1 mph - N/A   Overcast
11:58 PM 46.9 °F - 39.0 °F 74% 29.44 in 10.0 mi WNW 9.2 mph - N/A   Mostly Cloudy